FW4070 Weather Reports


time (UTC)temp
C
wind
direction
speed
KPH
gust
KPH
rain 1hr
cm
rain 24hr
cm
rain mn
cm
humidity
%
barometer
mb
20260504001520 12 247 8.0 24.1 0.00 0.00 0.00 50 1010.7
20260504001022 12 234 11.3 22.5 0.00 0.00 0.00 50 1010.7
20260504000509 12 237 6.4 17.7 0.00 0.00 0.00 50 1010.8
20260504000021 12 227 4.8 16.1 0.00 0.00 0.00 50 1010.7
20260503235527 12 245 4.8 14.5 0.00 0.00 0.00 50 1010.8
20260503235035 13 177 4.8 27.4 0.00 0.00 0.00 50 1010.8
20260503234543 13 244 11.3 27.4 0.00 0.00 0.00 49 1010.9
20260503234036 13 235 8.0 22.5 0.00 0.00 0.00 48 1010.9
20260503233519 13 224 12.9 22.5 0.00 0.00 0.00 48 1010.9
20260503233029 13 242 9.7 25.7 0.00 0.00 0.00 49 1011.0
20260503232533 12 238 9.7 25.7 0.00 0.00 0.00 49 1011.0
20260503232045 12 240 11.3 25.7 0.00 0.00 0.00 49 1011.1
20260503231536 12 203 12.9 25.7 0.00 0.00 0.00 49 1011.1
20260503231045 13 231 9.7 25.7 0.00 0.00 0.00 49 1011.1
20260503230522 13 227 8.0 22.5 0.00 0.00 0.00 49 1011.1
20260503230033 13 244 9.7 19.3 0.00 0.00 0.00 48 1011.1
20260503225537 13 234 8.0 27.4 0.00 0.00 0.00 49 1011.1
20260503225031 13 241 9.7 29.0 0.00 0.00 0.00 48 1011.1
20260503224538 13 251 12.9 29.0 0.00 0.00 0.00 48 1011.1
20260503224045 12 252 11.3 19.3 0.00 0.00 0.00 48 1011.2
20260503223529 12 238 8.0 22.5 0.00 0.00 0.00 48 1011.1
20260503223025 12 279 12.9 27.4 0.00 0.00 0.00 47 1011.2
20260503222508 12 238 11.3 22.5 0.00 0.00 0.00 47 1011.2
20260503222051 13 246 9.7 37.0 0.00 0.00 0.00 48 1011.2
20260503221543 13 236 9.7 37.0 0.00 0.00 0.00 47 1011.2
20260503221043 13 244 14.5 32.2 0.00 0.00 0.00 46 1011.3
20260503220550 13 239 16.1 37.0 0.00 0.00 0.00 46 1011.2
20260503220112 13 242 14.5 32.2 0.00 0.00 0.00 47 1011.2
20260503215510 12 263 16.1 37.0 0.00 0.00 0.00 47 1011.2
20260503215057 12 222 16.1 37.0 0.00 0.00 0.00 48 1011.2
20260503214507 13 243 12.9 40.2 0.00 0.00 0.00 49 1011.2
20260503214022 13 258 14.5 30.6 0.00 0.00 0.00 47 1011.2
20260503213534 13 273 14.5 33.8 0.00 0.00 0.00 45 1011.1
20260503213039 13 261 17.7 46.7 0.00 0.00 0.00 43 1011.1
20260503212544 13 243 17.7 33.8 0.00 0.00 0.00 43 1011.1
20260503212051 13 225 20.9 40.2 0.00 0.00 0.00 43 1011.2
20260503211609 13 269 22.5 43.5 0.00 0.00 0.00 42 1011.2
20260503211501 13 239 22.5 43.5 0.00 0.00 0.00 43 1011.3
20260503211011 13 272 17.7 41.8 0.00 0.00 0.00 43 1011.3
20260503210523 13 246 20.9 41.8 0.00 0.00 0.00 42 1011.3
20260503210030 13 221 16.1 40.2 0.00 0.00 0.00 43 1011.3
20260503205535 13 224 20.9 41.8 0.00 0.00 0.00 41 1011.4
20260503205020 13 257 22.5 48.3 0.00 0.00 0.00 41 1011.3
20260503204526 13 258 24.1 48.3 0.00 0.00 0.00 41 1011.3
20260503204035 13 254 20.9 43.5 0.00 0.00 0.00 42 1011.3
20260503203519 13 236 19.3 43.5 0.00 0.00 0.00 42 1011.3
20260503203124 13 270 17.7 45.1 0.00 0.00 0.00 42 1011.4
20260503202505 14 235 22.5 41.8 0.00 0.00 0.00 42 1011.4
20260503202016 14 257 20.9 35.4 0.00 0.00 0.00 43 1011.5
20260503201552 14 290 16.1 35.4 0.00 0.00 0.00 44 1011.4
20260503201024 13 238 17.7 37.0 0.00 0.00 0.00 45 1011.4
20260503200527 13 246 20.9 48.3 0.00 0.00 0.00 44 1011.5
20260503200036 13 281 24.1 49.9 0.00 0.00 0.00 44 1011.6
20260503195516 13 264 20.9 41.8 0.00 0.00 0.00 47 1011.8
20260503195023 13 278 22.5 41.8 0.00 0.00 0.00 45 1011.8
20260503194511 13 265 24.1 41.8 0.00 0.00 0.00 44 1011.9
20260503194017 13 277 22.5 46.7 0.00 0.00 0.00 47 1011.9
20260503193600 13 261 19.3 46.7 0.00 0.00 0.00 46 1012.1
20260503193502 13 284 20.9 46.7 0.00 0.00 0.00 46 1012.0
20260503193005 13 307 20.9 45.1 0.00 0.00 0.00 46 1012.2
20260503192517 13 273 19.3 45.1 0.00 0.00 0.00 46 1012.2
20260503192102 13 278 22.5 38.6 0.00 0.00 0.00 46 1012.2
20260503191515 13 255 20.9 56.3 0.00 0.00 0.00 47 1012.3
20260503191027 13 249 19.3 56.3 0.00 0.00 0.00 46 1012.3
20260503190527 13 237 16.1 37.0 0.00 0.00 0.00 48 1012.4
20260503190020 12 242 20.9 37.0 0.00 0.00 0.00 48 1012.4
20260503185521 13 234 22.5 35.4 0.00 0.00 0.00 46 1012.5
20260503185020 12 246 19.3 38.6 0.00 0.00 0.00 47 1012.6
20260503184507 13 263 20.9 43.5 0.00 0.00 0.00 46 1012.7
20260503184009 12 227 17.7 43.5 0.00 0.00 0.00 48 1012.8
20260503183556 12 251 20.9 40.2 0.00 0.00 0.00 47 1012.7
20260503183502 12 264 22.5 40.2 0.00 0.00 0.00 47 1012.7
20260503183009 12 237 22.5 40.2 0.00 0.00 0.00 46 1012.9
20260503182512 12 253 22.5 38.6 0.00 0.00 0.00 48 1012.8
20260503182027 12 263 17.7 33.8 0.00 0.00 0.00 49 1012.9
20260503181601 12 246 19.3 32.2 0.00 0.00 0.00 49 1013.0
20260503181028 12 242 17.7 29.0 0.00 0.00 0.00 50 1012.9
20260503180530 12 269 16.1 32.2 0.00 0.00 0.00 52 1013.1
20260503180031 12 238 16.1 32.2 0.00 0.00 0.00 52 1013.2
20260503175539 12 255 14.5 33.8 0.00 0.00 0.00 52 1013.2
20260503175046 12 238 16.1 33.8 0.00 0.00 0.00 51 1013.2
20260503174558 12 229 19.3 32.2 0.00 0.00 0.00 50 1013.3
20260503174101 12 248 19.3 38.6 0.00 0.00 0.00 51 1013.3
20260503173509 12 279 17.7 38.6 0.00 0.00 0.00 49 1013.2
20260503173039 12 260 17.7 38.6 0.00 0.00 0.00 48 1013.4
20260503172528 12 288 14.5 32.2 0.00 0.00 0.00 47 1013.3
20260503172034 12 244 17.7 32.2 0.00 0.00 0.00 46 1013.5
20260503171539 13 250 14.5 38.6 0.00 0.00 0.00 43 1013.4
20260503171049 13 238 17.7 33.8 0.00 0.00 0.00 40 1013.4
20260503170553 13 275 17.7 27.4 0.00 0.00 0.00 42 1013.4
20260503150526 10 234 16.1 27.4 0.00 0.00 0.00 46 1015.1
20260503131054 7 243 12.9 32.2 0.00 0.00 0.00 66 1015.6
20260503130558 7 254 17.7 32.2 0.00 0.00 0.00 66 1015.6
20260503110533 3 180 1.6 12.9 0.00 0.00 0.00 79 1015.3
20260503081548 2 184 1.6 6.4 0.00 0.00 0.00 79 1015.5
20260503081055 2 186 1.6 4.8 0.00 0.00 0.00 79 1015.5
20260503080508 2 188 0.0 4.8 0.00 0.00 0.00 79 1015.5
20260503072552 2 192 1.6 6.4 0.00 0.00 0.00 78 1015.5
20260503072100 2 209 1.6 6.4 0.00 0.00 0.00 78 1015.5
20260503071515 2 200 0.0 8.0 0.00 0.00 0.00 78 1015.5
20260503071023 2 204 0.0 8.0 0.00 0.00 0.00 78 1015.5
20260503070525 2 210 1.6 8.0 0.00 0.00 0.00 78 1015.5
20260503055037 3 191 0.0 8.0 0.00 0.00 0.00 77 1015.9
20260503054523 3 180 0.0 9.7 0.00 0.00 0.00 77 1016.0
20260503054030 3 189 1.6 9.7 0.00 0.00 0.00 77 1015.9
20260503053535 3 182 3.2 8.0 0.00 0.00 0.00 78 1015.9
20260503053043 3 188 1.6 8.0 0.00 0.00 0.00 78 1016.0
20260503052531 3 190 0.0 6.4 0.00 0.00 0.00 77 1016.1
20260503052032 3 193 0.0 6.4 0.00 0.00 0.00 77 1016.1
20260503051513 3 232 0.0 3.2 0.00 0.00 0.00 75 1016.1
20260503051025 3 232 0.0 1.6 0.00 0.00 0.00 75 1016.1
20260503050533 4 232 0.0 4.8 0.00 0.00 0.00 74 1016.1
20260503050039 4 232 1.6 11.3 0.00 0.00 0.00 74 1016.1
20260503045544 5 242 3.2 14.5 0.00 0.00 0.00 74 1016.2
20260503045051 5 260 8.0 14.5 0.00 0.00 0.00 74 1016.1
20260503044625 5 242 6.4 19.3 0.00 0.00 0.00 73 1016.1
20260503044005 5 250 11.3 22.5 0.00 0.00 0.00 73 1016.1
20260503043515 5 273 6.4 24.1 0.00 0.00 0.00 74 1016.2
20260503043029 5 261 9.7 24.1 0.00 0.00 0.00 74 1016.2
20260503042535 5 286 8.0 24.1 0.00 0.00 0.00 74 1016.2
20260503042046 5 252 9.7 24.1 0.00 0.00 0.00 74 1016.3
20260503041553 4 253 9.7 19.3 0.00 0.00 0.00 74 1016.3
20260503041059 4 240 8.0 19.3 0.00 0.00 0.00 75 1016.3
20260503040508 5 244 8.0 19.3 0.00 0.00 0.00 74 1016.3
20260503040054 4 282 8.0 17.7 0.00 0.00 0.00 74 1016.3
20260503035554 5 236 8.0 24.1 0.00 0.00 0.00 75 1016.3
20260503035103 4 236 11.3 24.1 0.00 0.00 0.00 75 1016.3
20260503034518 4 286 6.4 16.1 0.00 0.00 0.00 75 1016.4
20260503034027 5 240 4.8 14.5 0.00 0.00 0.00 75 1016.4
20260503033518 5 257 6.4 24.1 0.00 0.00 0.00 74 1016.4
20260503033025 5 248 8.0 24.1 0.00 0.00 0.00 74 1016.4
20260503032532 5 262 9.7 20.9 0.00 0.00 0.00 75 1016.4
20260503032038 5 249 4.8 16.1 0.00 0.00 0.00 74 1016.5
20260503031544 5 236 8.0 17.7 0.00 0.00 0.00 74 1016.5
20260503031030 5 246 8.0 17.7 0.00 0.00 0.00 74 1016.5
20260503030537 5 259 6.4 16.1 0.00 0.00 0.00 73 1016.5
20260503030050 5 249 6.4 16.1 0.00 0.00 0.00 73 1016.5
20260503025553 5 244 8.0 16.1 0.00 0.00 0.00 73 1016.5
20260503025002 5 235 8.0 19.3 0.00 0.00 0.00 73 1016.6
20260503024517 5 257 6.4 19.3 0.00 0.00 0.00 73 1016.6
20260503024026 5 240 9.7 19.3 0.00 0.00 0.00 73 1016.6
20260503023537 5 256 6.4 16.1 0.00 0.00 0.00 73 1016.7
20260503023048 5 231 4.8 14.5 0.00 0.00 0.00 73 1016.7
20260503022552 5 242 4.8 14.5 0.00 0.00 0.00 74 1016.7
20260503022038 5 241 3.2 14.5 0.00 0.00 0.00 74 1016.8
20260503021524 5 236 3.2 8.0 0.00 0.00 0.00 74 1016.8
20260503021025 5 244 1.6 9.7 0.00 0.00 0.00 74 1016.8
20260503020527 5 243 1.6 11.3 0.00 0.00 0.00 74 1016.8
20260503020031 5 265 1.6 16.1 0.00 0.00 0.00 73 1016.8
20260503015512 5 206 6.4 17.7 0.00 0.00 0.00 73 1016.7
20260503015014 5 249 3.2 14.5 0.00 0.00 0.00 73 1016.7
20260503014524 5 238 4.8 14.5 0.00 0.00 0.00 73 1016.7
20260503014007 5 239 1.6 8.0 0.00 0.00 0.00 74 1016.7
20260503013522 5 236 3.2 8.0 0.00 0.00 0.00 73 1016.8
20260503013003 5 260 3.2 12.9 0.00 0.00 0.00 72 1016.8
20260503012520 5 257 3.2 14.5 0.00 0.00 0.00 72 1016.8
20260503012021 5 250 6.4 14.5 0.00 0.00 0.00 72 1016.8
20260503011532 5 236 6.4 14.5 0.00 0.00 0.00 72 1016.8
20260503011035 5 270 3.2 14.5 0.00 0.00 0.00 72 1016.7
20260503010543 5 259 8.0 16.1 0.00 0.00 0.00 72 1016.7
20260503010052 5 234 6.4 16.1 0.00 0.00 0.00 71 1016.7
20260503005607 5 227 6.4 12.9 0.00 0.00 0.00 71 1016.7
20260503005503 5 246 3.2 12.9 0.00 0.00 0.00 70 1016.7
20260503005046 5 242 6.4 14.5 0.00 0.00 0.00 69 1016.7
20260503004536 5 234 6.4 14.5 0.00 0.00 0.00 69 1016.7
20260503004046 5 281 6.4 16.1 0.00 0.00 0.00 68 1016.6
20260503003554 5 246 8.0 14.5 0.00 0.00 0.00 69 1016.6
20260503003106 5 265 6.4 14.5 0.00 0.00 0.00 69 1016.6
20260503002507 5 287 6.4 16.1 0.00 0.00 0.00 69 1016.6
20260503002014 5 242 6.4 16.1 0.00 0.00 0.00 69 1016.6